AirNav   Air Wisconsin pilot careers
 
 1514 users online  

KSOY Sioux Center Municipal Airport
Sioux Center, Iowa, USA

GOING TO SIOUX CENTER?


FAA INFORMATION EFFECTIVE 03 JANUARY 2019

Location

FAA Identifier: SOY
Lat/Long: 43-08-03.9720N / 096-11-15.0660W
43-08.066200N / 096-11.251100W
43.1344367 / -96.1875183
(estimated)
Elevation: 1448 ft. / 441.4 m (surveyed)
Variation: 05E (1995)
From city: 3 miles N of SIOUX CENTER, IA
Time zone: UTC -6 (UTC -5 during Daylight Saving Time)
Zip code: 51250

Airport Operations

Airport use: Open to the public
Activation date: 08/1972
Control tower: no
ARTCC: MINNEAPOLIS CENTER
FSS: FORT DODGE FLIGHT SERVICE STATION
NOTAMs facility: FOD (NOTAM-D service available)
Attendance: MON-FRI 0800-1700, ALL SAT 0800-1200
Wind indicator: lighted
Segmented circle: no
Lights: ACTVT MIRL RY 18/36 - CTAF.

Airport Communications

CTAF/UNICOM: 122.8
WX AWOS-3 at ORC (10 nm SE): 127.825 (712-737-3193)
WX AWOS-3 at SHL (16 nm E): 119.775 (712-324-5159)
  • APCH/DEP SERVICE PROVIDED BY MINNEAPOLIS ARTCC ON FREQS 125.025/235.625 (SIOUX CITY RCAG).

Nearby radio navigation aids

NDB name  Hdg/Dist  Freq  Var  ID
SIOUX CENTERat field36805ESOY ... --- -.--
SIBLEY229/23.626905EISB .. ... -...

Airport Services

Fuel available: 100LL JET-A
Parking: hangars and tiedowns
Airframe service: MINOR
Powerplant service: MINOR
Bottled oxygen: NONE
Bulk oxygen: NONE

Runway Information

Runway 18/36

Dimensions: 3802 x 50 ft. / 1159 x 15 m
Surface: concrete, in good condition
Runway edge lights: medium intensity
NSTD MIRL; LGTS 30 FT FROM PAVEMENT EDGE.
RUNWAY 18  RUNWAY 36
Latitude: 43-08.379083N43-07.753300N
Longitude: 096-11.258033W096-11.244167W
Elevation: 1448.0 ft.1444.0 ft.
Traffic pattern: leftleft
Runway heading: 174 magnetic, 179 true354 magnetic, 359 true
Markings: nonprecision, in fair conditionnonprecision, in fair condition
Touchdown point: yes, no lightsyes, no lights
Obstructions: 23 ft. rr, 200 ft. from runway, 250 ft. left of centerline15 ft. road, 490 ft. from runway, 19:1 slope to clear

Airport Ownership and Management from official FAA records

Ownership: Publicly-owned
Owner: SIOUX CENTER
335 1ST AVENUE NORTHWEST
SIOUX CENTER, IA 51520
Phone 712-722-0761
Manager: RANDY VANDER WEIDE
3028 360TH STREET
SIOUX CENTER, IA 51520
Phone 712-722-2293

Airport Operational Statistics

Aircraft based on the field: 14
Single engine airplanes: 9
Multi engine airplanes: 5
    
Aircraft operations: avg 131/week *
70% local general aviation
15% transient general aviation
14% air taxi
<1% military
* for 12-month period ending 19 July 2017

Additional Remarks

RY 36 LGTD +80 FT SILO AT 700 FT & 321 FT L CNTRLN EXTDD.

Instrument Procedures

NOTE: All procedures below are presented as PDF files. If you need a reader for these files, you should download the free Adobe Reader.

NOT FOR NAVIGATION. Please procure official charts for flight.
FAA instrument procedures published for use from 3 January 2019 at 0901Z to 31 January 2019 at 0900Z.

 
IAPs - Instrument Approach Procedures
RNAV (GPS) RWY 18   download (148KB)
NDB RWY 18   download (155KB)
NOTE: Special Take-Off Minimums/Departure Procedures apply   download (158KB)

Other nearby airports with instrument procedures:

KORC - Orange City Municipal Airport (10 nm SE)
KSHL - Sheldon Regional Airport (16 nm E)
KRRQ - Rock Rapids Municipal Airport (19 nm N)
KLRJ - Le Mars Municipal Airport (21 nm S)
KISB - Sibley Municipal Airport (23 nm NE)
 
Loc | Ops | Rwys | IFR | FBO | Links
Com | Nav | Svcs | Stats | Notes
Area around KSOY (Sioux Center Municipal Airport)
 
Road maps at: MapQuest Bing Google
 
Aerial photo
No photo
 
Sectional chart

 
Airport distance calculator
Flying to Sioux Center Municipal Airport? Find the distance to fly.

From to KSOY

Sunrise and sunset
Times for 16-Jan-2019
 Local
(UTC-6)
 Zulu
(UTC)
Morning civil twilight07:2313:23
Sunrise07:5413:54
Sunset17:1523:15
Evening civil twilight17:4623:46

Current date and time
Zulu (UTC)  16-Jan-2019 19:25:23
Local (UTC-6)  16-Jan-2019 13:25:23
 
METAR
KORC 
11nm SE 
161855Z AUTO 12004KT 10SM CLR M06/M10 A3019 RMK AO2
KSHL 
17nm E 
161855Z AUTO 10007KT 10SM FEW013 M07/M10 A3019 RMK AO2
7G9 
20nm NW 
SuperAWOS
161855Z AUTO 00000KT 10SM M07/M12 A3014
KLRJ 
22nm S 
161855Z AUTO 09006KT 10SM CLR M07/M11 A3022 RMK AO2
TAF
KFSD 
36nm NW 
161744Z 1618/1718 10006KT P6SM SCT200 FM170000 11006KT P6SM OVC040 FM170200 12005KT 2SM -SN OVC022 FM170700 VRB04KT 5SM -SN BR OVC015 FM170900 VRB03KT 6SM BR OVC008
NOTAMs
Click for the latest NOTAMs
NOTAMs are issued by the DoD/FAA and will open in a separate window not controlled by AirNav.

 

 
 

Would you like to see your business listed on this page?

 If your business provides an interesting product or service to pilots, flight crews, aircraft, or users of the Sioux Center Municipal Airport, you should consider listing it here.  To start the listing process, click on the button below
 
Add a business
 

Other Pages about Sioux Center Municipal Airport

Page from the Iowa Airport Directory
 
Update a link
 
Copyright © AirNav, LLC. All rights reserved. Privacy Policy  Contact